Location: *
(31.2983°S, 151.4094°E)
Time: 13:58:42
(UTC+00:00)

Cosmos 2297 - Pass Details

Date: 20 November 2019
Orbit: 835 x 859 km, 71.0° (Epoch: 14 December)

Event Time Altitude Azimuth Distance (km) Brightness Sun altitude
Exits shadow 14:39:56 33° 164° (SSE) 1,380 5.2 -37.0°
Drops below altitude 10° 14:42:59 10° 161° (SSE) 2,472 6.9 -36.8°
Sets 14:45:26 0° 160° (SSE) 3,412 7.8 -36.6°
